Kosmos-2516

operational
NORAD ID: 41554 Int'l Des: 2016-032 Owner: VVKOV/IACG Country: RU Constellation: GLONASS
MEOCIRCULAR

关于 Kosmos-2516

正在加载描述...

实时位置

正在加载3D地球...

即将过境

高度历史

Altitude vs Time

uPlot chart will show altitude changes over time

两行轨道根数

1 41554U 16032A 25297.81058582 .00000028 00000-0 00000+0 0 9992
2 41554 63.8410 199.1399 0016429 208.7975 151.1802 2.13106613 73218
Epoch: Oct 24, 2025 • Age: 36 hours

当前状态

高度 19164.0 km
速度 3.95 km/s
星下点 63.11°N, 121.4°E
发射日期 May 29, 2016
运行时间 9.4 years
类型 other

技术详情

分类 Payload
质量 1450.00 kg
干质量 1200.00 kg
总质量 1450.00 kg
长度 4.00 m
直径 1.50 m
跨度 7.80 m
形状 Cyl + Ant + 2 Pan
制造商 RESH
平台类型 Uragan
阶段状态 In Orbit
所有者/国家 VVKOV/IACG/RU

大型星座

Loading constellations...